Orbital Elements at Epoch 2459200.5 (2020-Dec-17.0) TDB
Reference: JPL 21 (heliocentric ecliptic J2000)
Element | Value | Uncertainty (1-sigma) | Units |
e | .1692702908243305 | 3.1953e-08 | |
a | 2.614154076522567 | 1.2224e-08 | au |
q | 2.171655455729983 | 8.0822e-08 | au |
i | 7.93812059791059 | 3.5229e-06 | deg |
node | 151.2052567613898 | 2.9222e-05 | deg |
peri | 176.2709813505657 | 3.1704e-05 | deg |
M | 143.8849009080754 | 1.3709e-05 | deg |
tp | 2458583.467670312623 (2019-Apr-09.96767031) | 5.7191e-05 | TDB |
period | 1543.814794224797 4.23 | 1.0828e-05 2.965e-08 | d yr |
n | .233188593182752 | 1.6356e-09 | deg/d |
Q | 3.056652697315152 | 1.4293e-08 | au |
|
| | Orbit Determination Parameters
Additional Information
|